FW5926 Weather Reports


time (UTC)temp
F
wind
direction
speed
knots
gust
knots
rain 1hr
in
rain 24hr
in
rain mn
in
humidity
%
barometer
mb
20260506222104 55 266 6.1 11.3 0.00 0.04 0.00 41 1012.4
20260506221604 55 299 5.2 10.4 0.00 0.04 0.00 42 1012.4
20260506221104 56 289 5.2 10.4 0.00 0.04 0.00 41 1012.3
20260506220604 55 284 3.5 7.0 0.00 0.04 0.00 42 1012.4
20260506220106 55 266 4.3 8.7 0.00 0.04 0.00 42 1012.4
20260506215604 56 340 6.1 10.4 0.00 0.04 0.00 40 1012.4
20260506214104 55 290 1.7 6.1 0.00 0.04 0.00 41 1012.3
20260506213605 55 268 4.3 8.7 0.00 0.04 0.00 40 1012.4
20260506212604 55 287 7.8 13.9 0.00 0.04 0.00 40 1012.3
20260506212104 55 327 5.2 13.9 0.00 0.04 0.00 42 1012.3
20260506211604 55 300 5.2 8.7 0.00 0.04 0.00 40 1012.2
20260506211104 55 329 7.0 10.4 0.00 0.04 0.00 42 1012.2
20260506210106 55 302 3.5 6.1 0.00 0.04 0.00 42 1012.1
20260506205604 55 290 2.6 7.0 0.00 0.04 0.00 43 1012.2
20260506204604 55 313 5.2 10.4 0.00 0.04 0.00 43 1012.2
20260506204105 55 294 2.6 7.0 0.00 0.04 0.00 41 1012.1
20260506203605 55 329 4.3 7.8 0.00 0.04 0.00 44 1012.1
20260506201604 54 284 4.3 7.8 0.00 0.04 0.00 42 1012.2
20260506201104 55 300 5.2 8.7 0.00 0.04 0.00 42 1012.3
20260506200604 55 305 3.5 8.7 0.00 0.04 0.00 42 1012.3
20260506200106 55 34 3.5 8.7 0.00 0.04 0.00 43 1012.2
20260506195604 55 0 4.3 7.8 0.00 0.04 0.00 42 1012.2
20260506195104 55 345 6.1 8.7 0.00 0.04 0.00 42 1012.3
20260506194604 55 338 6.1 10.4 0.00 0.04 0.00 43 1012.4
20260506194105 55 338 4.3 10.4 0.00 0.04 0.00 41 1012.3
20260506193605 55 0 2.6 10.4 0.00 0.04 0.00 41 1012.3
20260506192605 55 320 8.7 11.3 0.00 0.04 0.00 42 1012.5
20260506192104 55 305 5.2 12.2 0.00 0.04 0.00 44 1012.6
20260506191105 54 328 7.8 12.2 0.00 0.04 0.00 42 1012.7
20260506190604 54 334 7.8 13.9 0.00 0.04 0.00 43 1012.8
20260506190105 53 286 5.2 10.4 0.00 0.04 0.00 44 1012.8
20260506185604 53 278 4.3 10.4 0.00 0.04 0.00 44 1012.8
20260506185104 53 345 6.1 11.3 0.00 0.04 0.00 44 1012.8
20260506184604 53 315 5.2 10.4 0.00 0.04 0.00 44 1012.9
20260506184104 53 287 7.0 10.4 0.00 0.04 0.00 43 1012.7
20260506183604 53 304 4.3 10.4 0.00 0.04 0.00 44 1012.8
20260506183104 53 286 2.6 6.1 0.00 0.04 0.00 43 1012.7
20260506182604 53 324 5.2 12.2 0.00 0.04 0.00 42 1012.7
20260506182104 53 321 5.2 11.3 0.00 0.04 0.00 43 1012.6
20260506181604 53 340 5.2 12.2 0.00 0.04 0.00 45 1012.6
20260506181105 52 340 4.3 7.8 0.00 0.04 0.00 42 1012.4
20260506180604 52 315 6.1 10.4 0.00 0.04 0.00 42 1012.6
20260506180105 52 338 3.5 8.7 0.00 0.04 0.00 41 1012.7
20260506175104 52 347 6.1 11.3 0.00 0.04 0.00 42 1012.7
20260506174604 52 337 5.2 12.2 0.00 0.04 0.00 40 1012.8
20260506174104 52 333 7.0 13.0 0.00 0.04 0.00 41 1012.8
20260506173104 52 334 7.8 11.3 0.00 0.04 0.00 43 1013.0
20260506172604 52 319 6.1 10.4 0.00 0.04 0.00 43 1013.1
20260506172104 52 319 4.3 10.4 0.00 0.04 0.00 43 1013.1
20260506171104 52 324 6.1 13.0 0.00 0.04 0.00 44 1013.3
20260506170604 52 345 7.0 11.3 0.00 0.04 0.00 43 1013.2
20260506170105 52 322 6.1 8.7 0.00 0.04 0.00 43 1013.2
20260506165604 52 308 7.0 12.2 0.00 0.04 0.00 43 1013.3
20260506165104 52 297 5.2 10.4 0.00 0.04 0.00 43 1013.2
20260506164604 52 327 5.2 10.4 0.00 0.04 0.00 42 1013.1
20260506164105 52 342 6.1 11.3 0.00 0.04 0.00 42 1013.1
20260506162604 53 320 7.0 12.2 0.00 0.04 0.00 43 1013.0
20260506162104 52 291 6.1 13.0 0.00 0.04 0.00 42 1013.0
20260506161605 52 304 7.0 11.3 0.00 0.04 0.00 42 1013.0
20260506161104 53 309 7.8 14.8 0.00 0.04 0.00 42 1012.8
20260506160106 52 317 7.8 13.9 0.00 0.04 0.00 43 1012.8
20260506155104 52 298 8.7 12.2 0.00 0.04 0.00 42 1012.8
20260506154104 52 311 6.1 12.2 0.00 0.04 0.00 42 1012.6
20260506153604 52 324 9.6 13.9 0.00 0.04 0.00 42 1012.6
20260506153104 53 318 8.7 13.9 0.00 0.04 0.00 43 1012.5
20260506152104 52 332 5.2 12.2 0.00 0.04 0.00 47 1012.5
20260506151104 52 318 2.6 10.4 0.00 0.04 0.00 50 1012.4
20260506150604 52 313 7.0 11.3 0.00 0.04 0.00 50 1012.4
20260506150105 51 318 4.3 10.4 0.00 0.04 0.00 51 1012.3
20260506145604 51 339 6.1 10.4 0.00 0.04 0.00 49 1012.3
20260506144604 51 278 4.3 8.7 0.00 0.04 0.00 51 1012.1
20260506144104 51 325 5.2 8.7 0.00 0.04 0.00 52 1012.1
20260506143604 51 286 4.3 8.7 0.00 0.04 0.00 52 1012.1
20260506143104 50 305 5.2 12.2 0.00 0.04 0.00 53 1012.1
20260506142604 50 325 7.0 11.3 0.00 0.04 0.00 51 1011.8
20260506142104 50 311 6.1 12.2 0.00 0.04 0.00 51 1011.9
20260506141604 50 332 7.0 10.4 0.00 0.04 0.00 51 1012.1
20260506141104 50 330 5.2 7.8 0.00 0.04 0.00 52 1011.9
20260506140106 50 334 6.1 10.4 0.00 0.04 0.00 52 1012.1
20260506135604 50 328 6.1 10.4 0.00 0.04 0.00 53 1012.2
20260506135104 49 324 6.1 11.3 0.00 0.04 0.00 52 1011.9
20260506134604 49 294 5.2 10.4 0.00 0.04 0.00 53 1011.9
20260506134104 49 313 4.3 10.4 0.00 0.04 0.00 54 1011.8
20260506133603 49 316 5.2 8.7 0.00 0.04 0.00 53 1011.7
20260506133104 49 326 5.2 8.7 0.00 0.04 0.00 53 1011.7
20260506132604 49 28 6.1 12.2 0.00 0.04 0.00 53 1011.6
20260506132104 49 332 5.2 11.3 0.00 0.04 0.00 54 1011.6
20260506131604 49 353 7.0 10.4 0.00 0.04 0.00 54 1011.6
20260506130604 48 327 7.0 12.2 0.00 0.04 0.00 55 1011.4
20260506130105 48 352 5.2 10.4 0.00 0.04 0.00 58 1011.4
20260506125104 48 334 4.3 8.7 0.00 0.04 0.00 58 1011.4
20260506124604 48 3 4.3 8.7 0.00 0.04 0.00 58 1011.4
20260506124104 47 333 5.2 12.2 0.00 0.04 0.00 59 1011.3
20260506123604 47 311 5.2 10.4 0.00 0.04 0.00 61 1011.4
20260506121604 47 309 4.3 7.8 0.00 0.04 0.00 64 1010.9
20260506120604 46 326 5.2 7.8 0.00 0.04 0.00 65 1010.8
20260506115104 45 332 3.5 7.0 0.00 0.04 0.00 66 1010.5
20260506114604 45 322 2.6 5.2 0.00 0.04 0.00 68 1010.3
20260506113604 45 337 1.7 2.6 0.00 0.04 0.00 68 1010.6
20260506113104 45 329 1.7 2.6 0.00 0.04 0.00 68 1010.3
20260506112604 45 329 0.9 2.6 0.00 0.04 0.00 68 1010.2
20260506112104 45 329 0.9 2.6 0.00 0.04 0.00 67 1010.1
20260506111603 45 329 1.7 2.6 0.00 0.04 0.00 67 1010.1
20260506111104 45 325 1.7 2.6 0.00 0.04 0.00 68 1010.1
20260506110603 45 317 2.6 2.6 0.00 0.04 0.00 67 1010.1
20260506110105 45 330 2.6 2.6 0.00 0.04 0.00 66 1009.9
20260506105604 45 331 1.7 2.6 0.00 0.04 0.00 67 1009.8
20260506105104 45 331 2.6 4.3 0.00 0.04 0.00 67 1009.7
20260506104604 46 321 2.6 4.3 0.00 0.04 0.00 67 1009.7
20260506104104 46 330 1.7 4.3 0.00 0.04 0.00 67 1009.5
20260506103604 46 313 3.5 6.1 0.00 0.04 0.00 68 1009.4
20260506103104 46 313 2.6 6.1 0.00 0.04 0.00 68 1009.5
20260506102604 46 312 2.6 4.3 0.00 0.04 0.00 68 1009.6
20260506101604 46 321 2.6 4.3 0.00 0.04 0.00 68 1009.4
20260506101103 46 334 2.6 4.3 0.00 0.04 0.00 69 1009.4
20260506100105 46 320 1.7 4.3 0.00 0.04 0.00 68 1009.4
20260506095604 46 315 2.6 4.3 0.00 0.04 0.00 68 1009.3
20260506095104 46 319 2.6 4.3 0.00 0.04 0.00 68 1009.2
20260506093104 46 320 1.7 2.6 0.00 0.04 0.00 68 1009.2
20260506092604 46 321 1.7 2.6 0.00 0.04 0.00 67 1009.2
20260506091604 46 323 0.9 2.6 0.00 0.04 0.00 68 1009.2
20260506091104 46 323 1.7 4.3 0.00 0.04 0.00 68 1009.2
20260506085605 46 322 2.6 6.1 0.00 0.04 0.00 67 1009.2
20260506085105 46 317 4.3 6.1 0.00 0.04 0.00 68 1009.1
20260506084604 46 332 2.6 5.2 0.00 0.04 0.00 69 1008.8
20260506083103 46 312 2.6 2.6 0.00 0.04 0.00 71 1008.7
20260506082604 46 314 1.7 4.3 0.00 0.04 0.00 72 1008.7
20260506082104 46 331 1.7 4.3 0.00 0.04 0.00 73 1008.9
20260506081604 46 321 1.7 4.3 0.00 0.04 0.00 74 1008.7
20260506081104 46 298 1.7 2.6 0.00 0.04 0.00 75 1008.9
20260506073105 46 279 0.9 1.7 0.00 0.04 0.00 84 1008.6
20260506072604 46 279 0.9 0.9 0.00 0.04 0.00 84 1008.6
20260506072104 46 279 0.9 2.6 0.00 0.04 0.00 84 1008.6
20260506071604 46 279 1.7 2.6 0.00 0.04 0.00 84 1008.9
20260506071104 46 279 1.7 2.6 0.00 0.04 0.00 85 1008.9
20260506070604 46 279 1.7 2.6 0.00 0.04 0.00 85 1009.0
20260506070105 46 279 0.9 2.6 0.00 0.04 0.00 85 1009.0
20260506062104 46 279 0.9 2.6 0.00 0.04 0.00 85 1009.1
20260506061605 46 279 0.0 1.7 0.00 0.04 0.00 85 1009.2
20260506061105 46 279 0.9 1.7 0.00 0.04 0.00 85 1009.3
20260506060604 46 279 0.9 1.7 0.00 0.04 0.00 85 1009.3
20260506060105 46 279 0.9 2.6 0.00 0.04 0.00 85 1009.4
20260506051104 46 279 0.9 1.7 0.00 0.05 0.00 85 1009.2
20260506050604 46 279 0.9 1.7 0.00 0.05 0.00 85 1009.2
20260506050105 46 279 0.9 2.6 0.00 0.05 0.00 85 1009.3
20260506045104 46 279 0.9 2.6 0.00 0.05 0.00 85 1009.3
20260506044604 46 279 0.9 2.6 0.00 0.06 0.00 85 1009.4
20260506043604 46 279 0.9 2.6 0.00 0.07 0.00 85 1009.5
20260506043104 46 279 1.7 2.6 0.00 0.07 0.00 85 1009.3
20260506042604 46 280 0.9 2.6 0.00 0.08 0.00 85 1009.3
20260506042104 46 280 0.9 2.6 0.00 0.08 0.00 85 1009.4
20260506041605 46 298 0.9 2.6 0.00 0.09 0.00 85 1009.3
20260506041104 46 298 0.9 1.7 0.00 0.09 0.00 84 1009.3
20260506040604 46 298 0.9 1.7 0.00 0.09 0.00 85 1009.2
20260506040106 46 298 0.9 1.7 0.00 0.09 0.00 85 1009.2
20260506035103 46 298 0.9 1.7 0.00 0.12 0.09 84 1009.3
20260506034604 46 298 0.9 2.6 0.00 0.12 0.09 84 1009.2
20260506033604 46 298 0.9 2.6 0.00 0.13 0.09 84 1009.3
20260506033105 46 298 0.9 2.6 0.00 0.14 0.09 84 1009.2
20260506032604 46 298 0.9 2.6 0.00 0.14 0.09 84 1009.1
20260506031604 46 298 0.9 1.7 0.00 0.14 0.09 83 1008.9
20260506030106 46 298 1.7 2.6 0.00 0.14 0.09 84 1008.9
20260506025604 46 298 0.9 2.6 0.00 0.14 0.09 83 1008.9
20260506025104 46 298 0.9 1.7 0.00 0.14 0.09 83 1008.8
20260506024604 46 298 0.9 1.7 0.00 0.14 0.09 83 1008.8
20260506024104 46 298 0.0 1.7 0.00 0.14 0.09 83 1008.9
20260506023604 46 298 0.0 0.9 0.00 0.14 0.09 83 1008.9
20260506023104 46 298 0.0 0.0 0.01 0.14 0.09 83 1008.9
20260506022604 46 298 0.9 1.7 0.01 0.14 0.09 83 1009.0
20260506021604 46 298 0.0 0.9 0.01 0.14 0.09 82 1009.0
20260506021104 46 298 0.0 1.7 0.01 0.14 0.09 82 1008.9
20260506020604 46 298 0.0 1.7 0.01 0.14 0.09 82 1008.8
20260506020105 47 298 0.0 0.9 0.01 0.14 0.09 82 1008.9
20260506015104 47 298 0.0 1.7 0.02 0.14 0.09 81 1008.9
20260506014605 47 298 0.9 1.7 0.03 0.14 0.09 80 1008.8
20260506014105 47 298 0.0 1.7 0.03 0.14 0.09 80 1009.0
20260506013604 47 298 0.0 0.9 0.03 0.14 0.09 79 1008.9
20260506013103 47 298 0.9 1.7 0.02 0.13 0.08 78 1008.7
20260506012104 48 298 1.7 2.6 0.03 0.13 0.08 76 1008.6
20260506011604 48 298 1.7 2.6 0.03 0.13 0.08 76 1008.6
20260506010603 49 298 0.9 2.6 0.03 0.13 0.08 73 1008.3
20260506010105 49 311 0.9 2.6 0.03 0.13 0.08 71 1008.4
20260506005605 50 311 1.7 2.6 0.02 0.12 0.07 69 1008.3
20260506005104 50 317 0.9 2.6 0.02 0.12 0.07 69 1008.4
20260506004105 51 317 0.9 2.6 0.01 0.11 0.06 64 1008.4
20260506003604 51 318 1.7 2.6 0.01 0.11 0.06 62 1008.4
20260506003104 51 348 3.5 6.1 0.01 0.11 0.06 60 1008.3
20260506002104 52 324 1.7 4.3 0.00 0.10 0.05 61 1008.4
20260506001604 52 333 2.6 2.6 0.00 0.10 0.05 60 1008.4
20260506001104 52 334 1.7 4.3 0.00 0.10 0.05 60 1008.4
20260506000604 52 299 2.6 5.2 0.00 0.10 0.05 62 1008.3
20260506000106 53 334 1.7 2.6 0.00 0.10 0.05 63 1008.3
20260505235604 53 333 1.7 4.3 0.00 0.10 0.05 62 1008.3
20260505234604 53 318 2.6 4.3 0.00 0.10 0.05 61 1008.2
20260505234104 53 309 1.7 2.6 0.00 0.10 0.05 60 1008.2
20260505233605 53 311 4.3 7.0 0.00 0.10 0.05 60 1008.0
20260505233104 53 300 1.7 2.6 0.00 0.10 0.05 62 1007.9
20260505232104 53 311 2.6 6.1 0.00 0.10 0.05 61 1007.8
20260505231604 53 285 1.7 5.2 0.00 0.10 0.05 62 1007.7
20260505230604 53 332 0.9 2.6 0.00 0.10 0.05 64 1007.7
20260505225604 53 307 2.6 4.3 0.00 0.10 0.05 65 1007.7
20260505225104 53 318 2.6 4.3 0.00 0.10 0.05 68 1007.7
20260505224604 53 279 2.6 5.2 0.00 0.10 0.05 68 1007.8
20260505223604 53 298 2.6 5.2 0.00 0.10 0.05 68 1007.8
20260505223104 53 285 4.3 7.0 0.00 0.11 0.05 67 1007.8
20260505222604 53 304 1.7 2.6 0.00 0.12 0.05 67 1007.8